Satellite: NOAA-16
Catalog number: 26536
Epoch time:      11152.56532236
Element set:    0317
Inclination:      099.1389 deg
RA of node:       182.7886 deg
Eccentricity:    0.0011426
Arg of perigee:   078.6647 deg
Mean anomaly:     281.5814 deg
Mean motion:   14.12622273 rev/day
Decay rate:       3.66e-06 rev/day^2
Epoch rev:           55115
Checksum:              314

Satellite: NOAA-17
Catalog number: 27453
Epoch time:      11152.72100908
Element set:    0308
Inclination:      098.3795 deg
RA of node:       193.1402 deg
Eccentricity:    0.0011532
Arg of perigee:   189.5569 deg
Mean anomaly:     170.5393 deg
Mean motion:   14.24277593 rev/day
Decay rate:       2.57e-06 rev/day^2
Epoch rev:           46445
Checksum:              312

Satellite: NOAA-18
Catalog number: 28654
Epoch time:      11152.71759460
Element set:    0788
Inclination:      098.9932 deg
RA of node:       103.8270 deg
Eccentricity:    0.0014731
Arg of perigee:   145.2248 deg
Mean anomaly:     214.9883 deg
Mean motion:   14.11477750 rev/day
Decay rate:       1.38e-06 rev/day^2
Epoch rev:           31074
Checksum:              318

Satellite: NOAA-19
Catalog number: 33591
Epoch time:      11152.71138703
Element set:    0979
Inclination:      098.8250 deg
RA of node:       093.1262 deg
Eccentricity:    0.0014759
Arg of perigee:   023.5081 deg
Mean anomaly:     336.6750 deg
Mean motion:   14.11169348 rev/day
Decay rate:      -1.02e-06 rev/day^2
Epoch rev:           11920
Checksum:              291

/EX
SB KEPS @ AMSAT  $ORB11153.M
Orbital Elements  11153.MISC

HR AMSAT ORBITAL ELEMENTS FOR MANNED AND MISCELLANEOUS SATELLITES
FROM WA5QGD FORT WORTH,TX June 2, 2011
Send Subscribe/unsubscribe to KEPS at http://www.amsat.org/mailman/listinfo/kep
BID: ORB11153.M
TO ALL RADIO AMATEURS BT

Satellite: HUBBLE
Catalog number: 20580
Epoch time:      11152.23076218
Element set:    0774
Inclination:      028.4692 deg
RA of node:       120.6850 deg
Eccentricity:    0.0003093
Arg of perigee:   308.8152 deg
Mean anomaly:     051.2073 deg
Mean motion:   15.01371121 rev/day
Decay rate:       8.17e-06 rev/day^2
Epoch rev:           95725
Checksum:              260

Satellite: ISS
Catalog number: 25544
Epoch time:      11153.74383836
Element set:     461
Inclination:      051.6505 deg
RA of node:       234.6982 deg
Eccentricity:    0.0005699
Arg of perigee:   004.0868 deg
Mean anomaly:     136.4001 deg
Mean motion:   15.75694979 rev/day
Decay rate:     2.2373e-04 rev/day^2
Epoch rev:           71863
Checksum:              321

Satellite: CO-58
Catalog number: 28895
Epoch time:      11152.64627693
Element set:    0889
Inclination:      097.9707 deg
RA of node:       029.6353 deg
Eccentricity:    0.0016703
Arg of perigee:   270.3036 deg
Mean anomaly:     089.6255 deg
Mean motion:   14.60104922 rev/day
Decay rate:       2.37e-06 rev/day^2
Epoch rev:           29797
Checksum:              348

Satellite: FALCON
Catalog number: 30776
Epoch time:      11152.98091667
Element set:    0102
Inclination:      035.4328 deg
RA of node:       079.4373 deg
Eccentricity:    0.0002162
Arg of perigee:   312.7606 deg
Mean anomaly:     047.2935 deg
Mean motion:   15.04624687 rev/day
Decay rate:      2.375e-05 rev/day^2
Epoch rev:           23275
Checksum:              293

Satellite: MAST
Catalog number: 31126
Epoch time:      11152.75564935
Element set:    0186
Inclination:      097.8944 deg
RA of node:       180.8521 deg
Eccentricity:    0.0093717
Arg of perigee:   218.0479 deg
Mean anomaly:     141.4071 deg
Mean motion:   14.53748645 rev/day
Decay rate:       2.18e-06 rev/day^2
Epoch rev:           21884
Checksum:              314

Satellite: CAPE1
Catalog number: 31130
Epoch time:      11152.65857714
Element set:     189
Inclination:      097.8983 deg
RA of node:       177.5508 deg
Eccentricity:    0.0101348
Arg of perigee:   229.2339 deg
Mean anomaly:     130.0021 deg
Mean motion:   14.52392249 rev/day
Decay rate:       2.38e-06 rev/day^2
Epoch rev:           21838
Checksum:              296

Satellite: COMPASS
Catalog number: 32787
Epoch time:      11152.61874226
Element set:    0003
Inclination:      097.8476 deg
RA of node:       216.7238 deg
Eccentricity:    0.0014690
Arg of perigee:   225.0857 deg
Mean anomaly:     134.9171 deg
Mean motion:   14.82417661 rev/day
Decay rate:      1.566e-05 rev/day^2
Epoch rev:           16725
Checksum:              308

Satellite: AAUSAT2
Catalog number: 32788
Epoch time:      11153.66424686
Element set:     992
Inclination:      097.8487 deg
RA of node:       217.9682 deg
Eccentricity:    0.0014236
Arg of perigee:   221.2835 deg
Mean anomaly:     138.7304 deg
Mean motion:   14.82601661 rev/day
Decay rate:       9.13e-06 rev/day^2
Epoch rev:           16742
Checksum:              323

Satellite: DO-64
Catalog number: 32789
Epoch time:      11153.74590788
Element set:       9
Inclination:      097.8578 deg
RA of node:       219.0258 deg
Eccentricity:    0.0014482
Arg of perigee:   218.4115 deg
Mean anomaly:     141.6068 deg
Mean motion:   14.83063194 rev/day
Decay rate:      2.160e-05 rev/day^2
Epoch rev:           16744
Checksum:              324

